Wetbulb
57.41 57.09 57.59 57.62 57.47 57.54 57.56 57.73 57.62 57.80 57.90 57.94 58.05 57.91 57.97 58.02 58.02 58.19 58.33 58.39 58.53 58.57 58.84 59.27 59.84 60.75 57.86 55.74 59.80 69.53 74.96 74.03 68.00 67.29 68.73 69.38 67.87 65.23 63.45 62.16 62.52 60.64 62.16 63.60 64.77 65.50 65.67
57.48 57.51 57.80 57.86 57.72 57.71 57.81 57.81 57.83 57.80 57.39 57.27 57.28 57.21 57.12 57.35 57.66 57.77 58.04 58.09 58.15 58.22 58.56 59.04 60.02 61.16 56.61 52.78 64.39 68.02 65.65 66.25 65.31 67.39 69.90 69.79 69.16 68.06 66.52 64.28 63.22 65.11 64.75 65.24 65.10 64.15 64.74
57.59 57.75 57.56 57.48 57.45 57.35 57.64 57.68 57.47 57.46 57.34 57.34 57.33 57.24 57.16 57.26 57.45 57.47 57.49 57.60 57.75 58.10 58.47 59.31 60.12 60.82 55.43 53.27 64.73 66.46 67.16 66.28 67.50 69.12 69.44 70.98 71.43 67.78 67.30 64.63 67.81 66.16 62.05 62.91 63.76 64.76 62.46
57.71 57.59 57.56 57.46 57.18 57.08 57.17 57.36 57.39 57.24 57.21 57.18 57.12 56.99 57.05 56.91 56.79 57.05 57.11 57.08 57.37 58.12 58.86 59.74 60.87 57.99 51.09 59.78 63.06 67.22 67.05 66.23 68.74 68.97 69.91 69.18 71.05 67.61 66.60 66.15 63.68 60.77 59.80 55.35 61.14 62.55 62.83
57.46 57.47 57.39 57.21 57.20 57.07 57.03 57.02 57.03 57.03 56.93 57.09 56.90 56.66 56.52 56.30 55.89 55.96 56.06 56.31 57.43 58.92 59.86 61.79 56.15 52.40 54.17 63.88 61.56 64.28 66.87 65.23 66.17 66.39 66.80 69.90 68.02 63.76 62.21 58.41 55.75 56.89 52.62 54.82 58.60 62.34 62.29
57.20 57.21 57.11 57.17 56.95 56.83 56.80 56.75 56.74 56.86 56.90 57.00 56.84 56.73 56.49 56.33 55.58 55.21 55.15 55.59 57.00 58.85 59.41 60.73 60.03 50.79 54.72 58.42 59.14 64.03 65.29 66.47 62.27 61.53 61.34 61.84 60.14 56.31 58.42 55.53 49.34 52.00 53.52 55.89 56.20 59.69 61.01
57.13 56.97 56.97 57.00 56.94 56.61 56.70 56.76 56.69 56.69 56.86 56.86 56.66 56.41 56.19 56.08 55.38 54.73 51.75 48.90 50.36 49.53 51.84 49.78 51.03 52.33 55.98 59.68 60.85 58.84 63.87 63.47 61.76 60.22 55.07 57.55 55.25 53.14 55.15 57.28 58.51 57.38 55.93 56.32 59.47 61.38 58.51
56.81 56.75 56.70 56.68 56.57 56.77 56.86 56.74 56.66 56.70 56.72 56.45 56.29 56.01 55.92 55.76 55.03 54.40 50.18 45.25 48.51 50.00 47.91 52.77 53.53 54.33 56.08 57.23 54.25 56.21 63.59 59.40 58.93 55.26 56.37 54.21 52.84 57.55 59.16 59.12 58.03 57.77 55.58 54.97 57.02 58.11 56.31
56.84 56.63 56.46 56.56 56.79 56.92 56.63 56.65 56.47 56.47 56.41 56.17 55.97 55.70 55.32 54.95 54.26 49.86 48.19 51.22 53.03 50.13 46.15 50.21 52.35 52.53 53.23 55.20 53.46 54.09 60.85 59.65 56.93 54.71 54.07 52.52 55.70 59.53 58.00 56.49 55.23 55.21 52.80 53.55 53.04 55.25 54.47
56.49 56.60 56.75 56.59 56.77 56.57 56.49 56.33 56.23 56.21 55.98 55.72 55.62 55.32 54.77 53.10 49.88 47.42 48.29 51.88 52.57 50.58 43.45 47.12 49.06 52.61 54.48 55.18 52.69 57.78 60.58 59.80 56.28 54.72 54.80 53.45 57.15 56.96 54.33 53.68 53.71 50.29 57.16 56.53 53.70 50.38 46.81
56.14 56.47 56.67 56.54 56.54 56.37 56.13 56.06 56.06 55.88 55.52 55.50 55.34 54.81 54.22 52.99 48.28 46.77 50.07 51.90 51.61 51.35 37.46 51.17 48.05 54.32 53.32 53.52 53.31 54.64 59.55 57.87 55.02 55.29 53.54 53.31 54.29 53.71 52.54 53.52 55.17 52.44 55.76 53.97 52.94 47.91 45.32
56.00 56.02 56.28 56.38 56.36 56.15 55.78 55.46 55.40 55.40 55.27 54.93 54.62 54.22 53.32 50.63 46.54 50.73 52.47 50.41 51.01 43.01 38.43 48.77 49.39 49.08 49.80 49.84 51.98 53.26 54.92 58.03 57.94 54.43 52.74 53.67 56.08 54.96 54.22 56.24 55.46 56.20 52.27 49.53 46.54 45.30 42.03
55.81 55.85 56.06 56.15 56.17 55.86 55.54 55.38 55.24 55.01 54.73 54.57 53.67 52.84 51.69 51.90 46.76 50.24 49.96 49.90 41.01 37.67 49.29 45.81 44.79 47.04 46.39 48.08 48.63 50.85 50.07 48.75 48.72 46.67 46.12 51.50 52.92 53.20 56.24 52.57 52.88 50.98 46.05 41.62 41.65 40.42 40.67
55.73 55.60 56.07 56.03 55.96 55.64 55.29 55.23 54.97 54.67 54.30 53.47 52.31 52.02 51.22 51.38 49.58 49.59 48.83 45.94 36.37 44.76 46.77 49.57 46.97 44.07 45.82 45.41 47.12 48.08 47.74 46.05 47.23 48.18 44.83 44.75 44.24 49.88 54.47 52.51 49.53 47.36 46.46 42.11 37.67 37.40 41.62
55.78 55.62 55.89 55.94 55.72 55.42 55.17 55.11 54.87 54.36 53.38 52.63 51.38 47.25 48.18 50.44 51.92 49.16 47.15 38.73 39.89 44.17 49.06 46.78 45.97 43.12 41.94 44.98 44.85 45.51 44.51 44.58 46.94 49.86 46.98 42.21 44.50 51.90 53.78 52.85 52.58 47.50 46.70 47.21 41.99 39.38 38.15
55.82 55.73 55.87 55.76 55.38 55.23 55.17 55.15 54.77 54.18 52.81 52.08 45.34 47.89 49.52 52.06 52.27 47.09 43.42 39.20 42.32 48.17 46.81 45.27 42.11 44.92 43.04 45.03 45.07 41.97 43.66 46.68 47.57 50.38 49.16 46.91 43.85 49.05 52.26 52.30 51.41 49.72 49.70 44.16 40.72 37.40 35.45
55.77 55.79 55.76 55.56 55.31 55.15 55.11 54.77 54.24 53.53 52.23 51.20 46.17 47.76 51.45 51.54 46.54 43.67 37.16 37.49 43.60 47.42 47.31 44.87 42.64 42.41 45.18 45.53 45.10 42.28 42.25 47.22 48.09 46.50 50.27 46.59 46.15 49.05 46.27 45.58 46.43 44.29 44.23 42.43 41.94 39.62 37.49
55.55 55.79 55.64 55.52 55.25 54.38 54.20 53.46 52.92 52.61 51.62 47.68 42.21 44.92 51.16 47.04 41.43 35.29 36.82 40.98 46.12 44.13 44.78 44.58 44.74 44.99 45.17 46.27 44.29 43.81 45.47 48.51 51.26 50.00 46.20 45.03 42.53 42.33 46.85 48.47 48.54 46.05 44.99 42.18 40.64 39.92 36.94
54.97 55.11 55.02 55.28 55.05 53.67 53.69 53.13 52.59 51.98 51.78 47.52 39.63 42.40 52.37 48.22 40.07 38.25 40.27 43.75 44.34 43.80 43.93 44.04 44.07 47.79 46.73 45.08 41.94 45.23 47.42 50.33 51.05 49.22 49.34 47.51 41.79 38.99 42.58 44.62 47.28 45.51 45.68 43.55 41.55 39.62 38.97
54.71 53.53 54.72 55.07 54.11 53.59 53.63 53.26 52.67 52.35 52.04 47.91 44.02 45.04 47.63 45.52 41.93 41.44 40.93 44.01 44.12 47.85 45.89 45.85 45.27 45.24 43.83 42.83 42.21 43.65 45.11 49.78 52.29 53.01 59.45 52.31 41.31 41.95 39.87 43.04 44.53 44.08 46.63 46.57 44.34 40.52 40.47
55.30 54.65 54.75 54.26 53.41 53.59 53.73 53.20 52.78 52.20 52.08 46.34 45.93 44.60 44.98 42.39 44.25 45.10 43.96 44.46 45.26 45.59 46.94 45.45 43.68 44.37 44.46 40.96 41.58 41.57 47.15 48.95 51.67 54.97 49.78 46.22 41.62 40.23 43.18 45.53 45.54 45.92 47.41 47.53 44.32 43.60 43.87
55.28 54.91 54.43 53.61 53.18 53.16 53.29 53.46 53.05 52.01 51.23 47.07 44.73 44.10 45.30 42.46 44.42 43.85 42.30 42.81 45.55 46.94 45.40 45.34 44.61 48.76 43.87 41.91 44.15 46.04 48.20 47.41 46.21 49.30 46.29 45.59 42.85 43.05 41.80 47.78 48.38 48.14 49.74 50.90 50.23 49.05 47.98
54.55 54.28 54.43 53.53 53.10 53.10 53.20 53.24 52.88 51.74 49.29 41.93 43.46 46.01 45.15 42.33 43.11 43.47 43.67 46.10 47.69 48.18 49.33 49.44 51.23 49.78 48.12 50.73 51.26 50.22 50.54 49.50 49.96 47.57 46.03 44.55 42.70 40.73 38.91 43.93 44.64 42.28 45.97 50.33 52.33 52.86 49.94
54.18 53.93 53.77 53.96 53.50 53.44 53.43 52.91 52.56 52.17 51.45 47.69 43.21 43.88 42.36 39.87 42.59 44.78 47.03 48.17 48.04 47.53 46.03 51.62 50.90 48.82 51.96 52.65 50.96 48.59 47.12 47.08 48.02 47.12 47.15 43.05 41.77 40.61 38.47 40.28 35.79 44.23 54.37 55.05 52.94 54.15 54.52
53.64 53.52 53.62 53.61 53.46 53.54 53.68 53.46 52.93 52.53 52.47 48.88 44.35 43.96 41.61 37.62 41.75 43.74 45.75 45.63 45.69 46.04 46.71 47.97 50.67 50.44 49.23 49.12 45.09 42.39 42.73 44.50 46.15 47.34 45.65 44.05 41.25 38.92 38.56 37.10 39.49 46.86 52.37 50.50 50.05 49.17 56.11
53.50 53.42 53.60 53.77 53.47 53.34 53.62 53.34 53.28 52.72 52.39 48.55 45.56 45.41 44.37 39.97 39.03 46.53 44.02 44.09 41.65 40.97 44.34 47.15 50.51 49.74 48.82 44.69 43.65 37.75 38.43 40.41 41.35 44.96 44.52 42.59 41.46 42.03 36.55 36.18 36.31 43.00 52.27 56.04 54.00 45.33 55.43
53.40 53.03 53.62 53.71 53.89 53.51 53.11 53.20 53.31 53.21 52.38 50.20 46.12 45.65 45.35 41.84 43.45 44.15 42.43 42.38 44.52 42.32 41.26 43.28 46.71 47.80 47.47 41.88 39.96 38.76 39.05 42.79 40.09 38.89 40.69 42.18 42.16 39.13 37.90 37.94 44.23 51.01 54.40 55.49 43.78 44.68 54.76
53.20 53.17 53.22 53.69 53.97 53.63 53.69 53.65 53.53 53.28 52.65 49.93 46.47 46.56 45.80 42.84 44.85 48.32 48.23 44.54 45.29 42.88 40.81 43.57 44.34 44.81 45.15 41.18 38.81 38.97 38.58 40.93 41.33 42.01 43.08 41.82 41.16 41.78 40.75 39.44 39.32 52.67 52.14 47.84 50.69 52.40 55.23
52.51 52.11 52.30 52.95 53.11 53.56 53.58 53.99 53.45 53.05 52.96 51.39 42.34 47.00 48.29 44.09 45.05 48.76 51.34 52.42 50.82 49.92 45.33 43.11 43.13 42.19 45.76 43.72 43.18 42.86 43.22 40.74 39.52 39.40 43.88 41.02 44.58 44.65 45.56 44.87 50.90 52.59 51.59 52.45 53.47 50.99 52.02
MSLP
1021.35 1020.96 1020.53 1020.09 1019.74 1019.32 1018.92 1018.56 1018.18 1017.78 1017.36 1016.91 1016.45 1015.97 1015.49 1015.06 1014.63 1014.21 1013.90 1013.46 1012.97 1012.51 1012.15 1011.84 1011.48 1011.23 1010.89 1009.78 1006.79 1005.08 1005.25 1005.89 1006.02 1006.08 1006.07 1006.23 1006.48 1006.90 1007.27 1007.53 1007.60 1007.60 1006.69 1006.20 1005.43 1005.13 1004.96
1021.45 1021.09 1020.66 1020.22 1019.82 1019.41 1018.99 1018.53 1018.07 1017.64 1017.23 1016.80 1016.32 1015.81 1015.30 1014.86 1014.41 1013.91 1013.60 1013.18 1012.61 1012.12 1011.99 1011.75 1011.44 1011.28 1010.70 1008.23 1004.90 1004.93 1005.45 1006.16 1005.81 1005.94 1006.01 1006.23 1006.59 1006.59 1007.02 1007.32 1007.34 1006.58 1006.05 1005.44 1004.95 1004.61 1004.61
1021.62 1021.20 1020.79 1020.38 1019.99 1019.56 1019.10 1018.65 1018.17 1017.70 1017.23 1016.76 1016.25 1015.72 1015.15 1014.60 1014.11 1013.61 1013.28 1012.75 1012.28 1011.76 1011.54 1011.39 1011.28 1011.10 1009.91 1006.50 1004.87 1005.07 1005.53 1005.81 1005.53 1005.52 1005.75 1005.84 1006.31 1006.78 1006.91 1006.66 1006.37 1006.17 1005.94 1004.92 1003.58 1003.56 1003.89
1021.62 1021.26 1020.90 1020.51 1020.05 1019.56 1019.10 1018.68 1018.25 1017.76 1017.24 1016.71 1016.20 1015.59 1015.01 1014.42 1013.88 1013.25 1012.73 1012.34 1011.80 1011.28 1011.23 1011.09 1011.11 1010.78 1008.39 1005.22 1004.90 1005.33 1005.60 1005.81 1005.61 1005.44 1005.48 1005.57 1006.03 1006.67 1006.82 1006.39 1006.29 1006.18 1006.09 1005.60 1003.15 1003.07 1003.47
1021.77 1021.39 1020.99 1020.51 1020.01 1019.51 1018.98 1018.50 1018.03 1017.51 1016.94 1016.45 1015.96 1015.43 1014.81 1014.26 1013.69 1013.00 1012.33 1011.79 1011.13 1010.71 1010.91 1010.87 1010.91 1010.16 1007.27 1005.10 1005.14 1004.75 1005.06 1005.28 1005.43 1005.59 1005.64 1005.70 1006.07 1006.68 1006.79 1007.01 1006.75 1006.44 1006.18 1005.32 1003.81 1002.77 1002.96
1022.10 1021.64 1021.16 1020.66 1020.18 1019.67 1019.12 1018.57 1018.01 1017.44 1016.84 1016.25 1015.68 1015.13 1014.55 1014.01 1013.47 1012.78 1011.98 1011.01 1010.77 1010.63 1010.85 1010.71 1010.10 1009.62 1006.39 1004.77 1004.12 1004.36 1004.70 1005.01 1005.15 1005.26 1005.47 1005.94 1006.50 1006.95 1007.37 1007.58 1007.57 1006.75 1006.22 1005.12 1003.94 1002.73 1002.81
1022.21 1021.73 1021.26 1020.77 1020.24 1019.69 1019.10 1018.49 1017.92 1017.33 1016.75 1016.13 1015.57 1014.97 1014.31 1013.77 1013.22 1012.68 1011.96 1010.89 1011.00 1010.67 1010.00 1008.80 1008.07 1007.18 1005.57 1004.44 1003.65 1003.85 1004.28 1005.04 1005.41 1005.51 1005.84 1006.08 1007.01 1007.03 1006.82 1006.86 1006.31 1006.16 1005.98 1005.16 1002.78 1002.42 1002.50
1022.29 1021.82 1021.31 1020.77 1020.23 1019.65 1018.99 1018.38 1017.78 1017.16 1016.52 1015.88 1015.31 1014.78 1014.06 1013.30 1012.87 1012.48 1012.54 1011.33 1009.99 1009.99 1009.06 1007.29 1006.72 1006.25 1005.29 1004.87 1004.74 1003.65 1003.80 1004.85 1005.16 1005.60 1005.79 1006.61 1006.77 1006.40 1006.01 1005.62 1005.47 1005.58 1005.56 1004.55 1002.76 1001.84 1002.57
1022.42 1021.93 1021.40 1020.85 1020.24 1019.60 1018.94 1018.25 1017.63 1016.99 1016.37 1015.71 1015.03 1014.47 1013.77 1012.84 1012.31 1012.27 1011.77 1010.14 1009.06 1009.07 1008.89 1006.55 1005.58 1004.98 1004.58 1004.79 1004.41 1003.57 1003.59 1004.25 1004.77 1005.47 1005.81 1006.19 1005.15 1004.94 1004.95 1004.47 1004.56 1004.48 1004.54 1003.82 1003.28 1002.78 1002.75
1022.52 1022.03 1021.51 1020.93 1020.31 1019.67 1018.99 1018.27 1017.55 1016.85 1016.15 1015.49 1014.86 1014.22 1013.63 1012.61 1012.27 1012.08 1010.79 1009.09 1008.81 1008.64 1008.57 1006.18 1004.89 1003.55 1003.74 1003.83 1003.73 1002.83 1002.98 1003.84 1004.62 1004.98 1005.55 1005.55 1004.78 1004.69 1004.68 1004.65 1004.20 1003.96 1003.37 1003.45 1003.50 1003.88 1004.24
1022.60 1022.08 1021.54 1021.01 1020.45 1019.77 1019.05 1018.33 1017.56 1016.75 1015.93 1015.15 1014.60 1014.06 1013.68 1013.37 1012.84 1011.78 1009.55 1008.79 1008.30 1008.17 1007.82 1004.81 1003.89 1002.74 1002.77 1003.42 1003.20 1002.64 1002.71 1003.33 1004.27 1004.78 1005.26 1004.87 1004.60 1004.50 1004.44 1004.21 1003.93 1004.03 1003.70 1004.04 1003.88 1004.70 1005.27
1022.66 1022.12 1021.60 1021.04 1020.44 1019.84 1019.13 1018.31 1017.49 1016.65 1015.73 1014.85 1014.08 1013.84 1013.50 1013.41 1013.02 1010.10 1009.15 1008.61 1008.29 1008.95 1006.58 1004.14 1003.15 1003.01 1003.37 1003.28 1003.11 1002.95 1002.91 1003.09 1003.85 1004.83 1005.18 1005.01 1004.42 1004.33 1003.68 1003.37 1003.75 1003.58 1004.07 1004.80 1005.54 1006.09 1006.85
1022.66 1022.15 1021.61 1021.06 1020.48 1019.79 1019.07 1018.31 1017.39 1016.41 1015.45 1014.44 1013.58 1013.09 1013.29 1012.60 1010.94 1009.81 1009.40 1009.29 1009.68 1008.88 1005.69 1004.33 1003.49 1003.37 1003.36 1003.51 1003.61 1003.38 1003.61 1004.08 1004.72 1005.52 1005.98 1005.20 1004.36 1003.76 1003.34 1003.40 1003.35 1003.98 1005.27 1006.26 1007.27 1007.86 1007.88
1022.78 1022.20 1021.64 1021.05 1020.42 1019.75 1019.03 1018.20 1017.26 1016.20 1015.00 1013.98 1012.76 1011.90 1011.22 1010.91 1009.92 1009.64 1009.80 1010.19 1009.88 1007.43 1005.91 1004.40 1003.68 1003.78 1003.93 1003.88 1003.85 1003.92 1004.25 1004.71 1004.90 1005.52 1006.49 1006.34 1004.87 1003.47 1002.96 1003.08 1003.45 1004.20 1005.36 1006.79 1007.94 1009.12 1008.29
1022.83 1022.20 1021.65 1021.05 1020.40 1019.70 1018.93 1018.13 1017.18 1016.10 1014.84 1013.57 1012.03 1011.36 1011.33 1009.22 1009.70 1010.14 1010.50 1010.82 1009.03 1007.50 1005.96 1004.98 1004.12 1004.21 1004.29 1004.08 1004.20 1004.51 1004.61 1004.54 1004.66 1005.12 1005.97 1006.09 1005.24 1003.61 1002.97 1002.72 1003.27 1004.15 1005.08 1005.61 1007.16 1008.59 1009.02
1022.85 1022.20 1021.63 1021.02 1020.43 1019.74 1018.90 1018.05 1017.09 1016.05 1014.78 1013.54 1012.94 1011.96 1010.23 1008.77 1009.19 1009.87 1010.64 1010.51 1009.03 1007.34 1006.05 1005.31 1004.92 1004.39 1004.28 1004.12 1004.27 1004.57 1004.27 1003.82 1003.81 1004.05 1004.41 1005.36 1005.38 1003.78 1002.83 1002.74 1003.05 1003.49 1004.46 1005.83 1007.32 1008.61 1009.02
1022.92 1022.36 1021.74 1021.07 1020.45 1019.74 1018.90 1018.01 1017.09 1016.19 1014.65 1013.18 1012.92 1011.76 1009.21 1008.81 1009.17 1010.25 1011.26 1010.42 1008.72 1007.08 1006.08 1005.69 1005.18 1004.96 1004.44 1004.18 1004.12 1004.17 1004.03 1003.20 1002.97 1003.34 1003.93 1004.88 1005.44 1003.89 1003.65 1003.38 1003.23 1003.75 1004.48 1005.83 1007.26 1008.05 1008.76
1022.96 1022.44 1021.84 1021.16 1020.46 1019.76 1019.07 1018.21 1017.41 1016.52 1015.08 1013.85 1013.81 1012.26 1009.60 1009.55 1010.22 1011.33 1011.05 1009.63 1008.35 1007.13 1006.52 1006.09 1005.43 1004.94 1004.48 1004.07 1004.12 1003.83 1003.51 1002.93 1002.60 1002.94 1003.94 1004.71 1005.53 1005.38 1004.39 1003.43 1003.37 1003.76 1004.19 1005.55 1007.18 1008.24 1008.59
1022.98 1022.39 1021.86 1021.24 1020.56 1019.92 1019.18 1018.39 1017.62 1016.83 1016.31 1015.87 1014.87 1013.10 1009.89 1009.61 1010.51 1011.11 1010.34 1009.34 1008.28 1007.32 1006.30 1005.90 1005.36 1004.50 1004.27 1004.04 1004.09 1003.68 1003.18 1002.76 1002.70 1002.91 1003.43 1004.40 1005.51 1005.83 1005.00 1004.27 1003.77 1003.69 1004.07 1004.91 1006.13 1007.35 1008.04
1022.92 1022.38 1021.79 1021.27 1020.67 1020.01 1019.31 1018.57 1017.73 1016.81 1015.93 1015.75 1015.07 1013.71 1011.58 1010.68 1010.86 1010.65 1010.36 1009.37 1008.15 1006.74 1006.07 1005.36 1004.75 1004.22 1004.26 1004.07 1003.89 1003.79 1003.59 1003.11 1003.20 1003.35 1003.52 1004.00 1005.72 1005.98 1005.66 1004.75 1004.21 1004.03 1004.12 1004.47 1005.44 1007.08 1007.67
1022.90 1022.44 1021.89 1021.28 1020.71 1020.04 1019.31 1018.61 1017.75 1016.84 1016.01 1015.86 1015.13 1014.58 1013.56 1012.22 1011.58 1011.05 1010.47 1009.53 1008.56 1007.69 1005.95 1005.13 1004.42 1004.02 1003.66 1004.11 1004.12 1004.14 1004.08 1004.00 1003.91 1004.05 1004.23 1004.99 1006.21 1006.16 1005.54 1004.82 1004.42 1004.11 1004.05 1004.37 1005.22 1006.02 1006.84
1022.77 1022.30 1021.82 1021.29 1020.73 1020.08 1019.37 1018.70 1017.96 1017.04 1015.96 1015.71 1015.74 1015.37 1014.16 1013.19 1012.23 1011.31 1010.59 1009.44 1008.83 1007.53 1006.69 1005.06 1004.55 1003.47 1003.45 1003.63 1003.50 1004.14 1004.20 1004.31 1004.46 1004.82 1005.28 1005.95 1006.61 1006.70 1006.21 1005.27 1004.67 1004.22 1004.23 1004.82 1005.71 1006.56 1006.86
1022.71 1022.21 1021.70 1021.19 1020.69 1020.13 1019.49 1018.86 1018.27 1017.60 1016.60 1016.80 1016.39 1015.72 1015.15 1013.99 1013.02 1012.08 1011.11 1010.20 1008.86 1007.91 1005.65 1004.70 1004.02 1003.71 1003.57 1003.53 1003.60 1003.84 1004.22 1004.40 1004.78 1005.23 1006.02 1006.56 1007.02 1007.53 1007.26 1006.31 1005.53 1005.09 1004.82 1005.45 1006.94 1007.57 1007.69
1022.75 1022.15 1021.62 1021.10 1020.58 1020.06 1019.56 1019.07 1018.56 1018.17 1018.07 1018.22 1017.58 1017.02 1016.22 1014.97 1013.75 1012.49 1011.28 1010.46 1009.20 1008.19 1007.08 1005.02 1004.31 1003.82 1003.66 1003.43 1003.93 1004.40 1004.64 1004.83 1004.77 1005.08 1005.35 1006.67 1007.61 1008.01 1008.36 1007.39 1006.81 1006.17 1005.31 1006.02 1007.17 1008.49 1008.54
1022.74 1022.15 1021.56 1021.03 1020.53 1020.03 1019.59 1019.12 1018.73 1018.37 1018.16 1018.03 1017.72 1017.49 1016.90 1015.84 1014.26 1012.72 1011.73 1010.85 1009.28 1008.24 1007.30 1006.19 1005.11 1004.82 1004.55 1004.51 1005.61 1005.97 1006.12 1005.79 1005.34 1005.13 1005.67 1006.48 1007.40 1008.43 1008.59 1008.18 1007.53 1006.90 1006.68 1006.59 1007.02 1009.22 1009.19
1022.64 1022.09 1021.50 1020.95 1020.46 1019.99 1019.54 1019.13 1018.71 1018.35 1018.02 1017.78 1017.62 1017.36 1017.11 1016.42 1014.03 1012.89 1011.94 1011.06 1010.19 1009.27 1008.24 1006.99 1005.83 1005.24 1005.22 1006.12 1007.03 1007.81 1007.63 1007.03 1006.59 1005.69 1005.75 1006.50 1007.08 1007.85 1008.87 1008.37 1007.77 1006.58 1006.57 1006.89 1006.91 1009.05 1009.28
1022.50 1021.93 1021.39 1020.82 1020.33 1019.92 1019.48 1019.07 1018.62 1018.27 1017.93 1017.82 1017.51 1017.28 1017.16 1016.62 1013.85 1012.87 1012.06 1011.16 1010.36 1009.94 1009.58 1008.74 1007.84 1006.73 1006.31 1007.71 1008.55 1008.80 1008.38 1007.54 1007.18 1006.65 1006.74 1007.24 1007.79 1008.16 1008.25 1008.16 1007.77 1006.99 1006.65 1006.82 1007.83 1009.29 1009.10
1022.34 1021.86 1021.35 1020.74 1020.15 1019.68 1019.30 1018.91 1018.53 1018.17 1017.83 1017.69 1017.32 1017.01 1017.14 1016.61 1014.15 1012.55 1011.68 1010.94 1010.59 1010.40 1010.23 1009.31 1008.74 1008.46 1008.31 1008.85 1009.42 1009.34 1008.97 1008.07 1007.66 1007.01 1007.02 1007.70 1008.18 1008.64 1008.63 1008.69 1008.48 1007.21 1006.97 1007.36 1008.22 1008.50 1008.66
1022.15 1021.65 1021.15 1020.65 1020.07 1019.54 1019.09 1018.70 1018.33 1018.10 1017.80 1017.59 1017.69 1016.91 1016.90 1016.91 1013.97 1012.10 1011.04 1010.25 1010.09 1009.89 1010.28 1010.08 1009.98 1009.61 1009.37 1009.62 1009.94 1009.84 1009.56 1008.76 1008.55 1008.23 1007.32 1007.68 1007.80 1008.51 1009.22 1009.21 1008.55 1007.98 1007.79 1007.83 1008.08 1008.37 1008.55
Wind_Speed
14 15 15 15 15 15 16 15 16 16 16 16 17 17 17 17 17 17 16 16 16 16 15 14 13 11 3 3 8 5 10 8 5 4 3 2 3 2 1 2 0 1 4 5 10 11 10
15 15 15 15 15 16 16 16 17 17 17 17 18 18 18 18 18 18 17 16 17 17 15 13 11 9 2 4 1 10 9 7 5 4 4 4 3 4 2 3 4 5 5 9 8 10 6
15 15 16 16 16 15 16 16 17 17 18 18 18 18 18 19 19 19 18 18 18 17 15 12 9 3 1 11 2 7 8 6 4 5 3 4 6 2 3 4 4 4 7 12 12 4 5
16 16 16 16 16 16 17 17 17 17 18 18 18 19 19 19 20 20 20 20 19 18 13 10 6 2 8 2 3 5 5 3 3 6 2 5 7 2 2 5 5 5 3 5 8 9 5
17 17 17 17 17 18 18 19 19 19 19 19 19 19 19 20 21 21 22 22 20 12 5 6 1 1 10 2 4 7 6 5 6 5 5 3 4 3 2 2 6 3 2 6 7 6 5
16 16 16 17 17 17 18 18 19 19 19 19 19 19 19 19 21 22 24 21 3 5 2 4 4 3 4 3 4 6 6 5 2 1 4 4 2 2 3 5 5 3 5 5 7 3 10
16 17 17 17 18 18 19 19 19 19 19 19 19 19 19 19 21 19 12 3 4 2 1 8 5 4 5 6 4 5 6 6 1 1 3 2 4 6 9 9 12 5 3 9 16 8 5
17 18 18 19 19 19 19 19 20 20 20 21 20 20 20 20 19 17 1 2 2 3 9 10 9 8 5 4 5 5 8 6 6 6 1 5 5 10 10 8 10 7 6 9 10 6 4
17 18 19 19 19 19 20 21 21 21 21 22 21 20 21 22 22 2 2 5 1 6 3 9 7 6 6 9 8 8 11 6 4 4 3 5 10 10 8 10 12 5 5 5 3 6 6
18 18 18 19 19 19 20 21 22 22 23 22 22 21 20 28 1 4 5 3 7 4 5 8 5 9 6 6 5 7 8 7 2 8 5 6 4 3 4 6 3 6 3 6 2 4 2
17 18 18 19 19 20 21 22 23 23 24 24 22 20 16 9 5 2 4 8 7 5 1 2 4 1 4 10 2 4 4 4 8 6 5 9 4 6 6 6 4 10 2 5 2 3 1
18 18 18 18 19 20 21 22 23 24 25 25 24 19 15 2 1 8 9 9 4 7 6 2 5 6 6 2 1 1 4 4 3 3 1 8 2 4 7 5 6 9 2 5 5 3 4
17 18 18 18 19 20 21 22 24 25 26 27 26 21 8 2 5 4 6 5 6 4 5 1 5 4 3 6 3 2 4 2 6 3 6 8 11 4 4 6 3 6 7 5 6 6 6
17 18 18 18 19 20 21 23 24 26 28 28 30 24 7 6 4 4 4 7 3 4 6 4 2 3 6 3 4 3 4 6 4 4 4 6 10 3 5 7 5 1 7 7 7 5 7
18 18 18 19 19 20 22 23 25 27 30 31 27 2 2 5 9 3 7 3 8 6 3 7 3 5 1 4 5 5 6 5 7 10 10 6 9 5 4 3 7 3 4 5 5 2 4
18 18 18 19 19 20 22 23 25 28 31 30 4 4 5 4 9 5 6 6 5 4 4 4 3 2 4 2 5 5 7 5 9 13 4 5 5 6 4 3 3 7 5 2 3 3 6
16 17 18 19 19 20 22 23 25 28 32 24 2 4 3 4 2 7 4 8 5 6 3 5 2 2 5 5 4 6 4 5 2 2 10 7 7 16 2 3 8 2 3 3 5 5 5
17 16 17 18 19 22 23 25 26 26 30 8 4 2 3 2 6 1 3 6 3 3 2 4 3 8 6 7 6 5 5 4 5 2 6 7 6 7 14 6 3 4 5 5 6 6 2
17 16 16 18 18 22 23 25 26 24 21 4 2 3 4 4 2 2 5 4 3 4 5 4 4 5 1 6 4 3 1 3 5 4 0 6 0 3 9 8 5 3 2 5 5 3 3
17 19 15 16 18 20 22 24 26 25 26 3 2 3 5 4 0 4 3 7 5 4 7 6 8 6 4 5 2 6 3 1 5 5 7 7 3 7 8 8 4 3 2 2 6 4 3
15 18 17 17 19 19 20 22 25 26 25 1 2 1 2 3 2 2 2 4 6 5 5 2 4 7 9 7 5 4 1 2 4 8 4 5 2 2 5 6 3 4 6 2 5 5 5
17 16 18 18 19 19 20 20 22 25 20 3 2 3 5 2 4 3 4 1 5 3 5 7 6 8 6 6 9 8 6 2 3 5 3 3 3 1 3 0 4 4 4 6 6 3 5
17 17 17 19 19 19 19 19 19 20 13 3 3 3 3 3 4 2 3 3 6 8 8 10 6 5 5 6 6 6 4 4 7 7 2 1 5 3 4 4 4 4 2 8 7 5 1
16 16 17 17 18 19 18 18 18 15 9 2 3 1 3 4 1 3 4 5 8 6 5 6 5 4 1 5 3 5 4 1 5 6 7 7 6 4 4 3 3 5 7 16 17 7 7
17 17 16 17 18 18 17 18 17 15 9 3 2 1 2 3 3 6 4 6 9 6 5 4 5 3 5 6 5 6 6 7 5 2 4 5 6 3 6 6 1 4 5 3 5 2 3
16 16 17 16 17 18 17 18 16 15 10 1 2 2 1 2 5 2 3 3 3 4 7 5 6 6 6 4 4 4 4 4 5 8 5 5 3 6 3 7 10 5 2 6 6 3 3
16 17 16 16 16 17 18 17 17 15 11 3 4 2 1 2 6 2 4 3 2 1 3 4 9 9 4 3 3 3 4 3 3 3 5 5 4 4 3 4 2 3 7 5 5 7 4
16 17 18 18 16 16 17 16 16 15 14 6 5 2 1 2 8 6 4 3 3 1 1 5 5 5 5 5 3 3 3 4 1 4 2 3 2 1 2 5 1 5 3 7 6 2 3
16 18 18 17 17 18 18 16 16 14 12 8 3 3 2 4 8 4 9 12 9 10 3 2 4 2 4 4 0 2 2 1 3 3 2 3 5 5 2 5 6 4 6 1 4 3 2
Wind_Direction
16 15 11 7 5 1 358 354 350 348 345 343 341 338 336 336 334 330 328 323 314 309 309 311 312 318 323 309 251 149 130 128 155 171 204 106 25 109 160 171 187 162 268 248 257 278 281
18 13 10 7 4 0 356 353 352 350 349 347 344 340 337 333 330 325 323 317 310 305 304 304 304 314 318 295 150 146 135 131 197 184 194 175 180 239 125 216 202 220 262 276 247 248 262
14 12 10 6 2 360 357 355 352 348 345 343 342 339 336 331 328 322 319 312 306 301 301 295 292 279 292 239 330 153 144 176 189 196 211 201 145 200 150 324 218 261 316 323 272 224 207
11 9 7 3 360 358 356 353 349 345 343 342 340 338 335 331 328 322 315 309 304 297 290 273 259 251 252 241 124 152 162 196 234 247 270 340 134 153 212 302 306 299 89 350 289 137 194
7 5 3 0 358 355 352 350 349 345 342 339 338 335 333 333 328 321 314 309 301 286 216 155 147 172 269 48 185 197 162 211 177 212 228 220 91 205 351 40 347 346 252 217 283 210 130
6 3 1 358 356 352 350 348 347 344 339 336 335 332 328 329 328 322 319 305 270 107 174 202 260 343 279 241 219 172 191 226 264 295 306 125 149 260 68 74 258 286 319 313 255 267 205
5 3 360 357 353 350 348 346 344 341 338 334 333 330 326 323 324 326 341 12 26 12 237 206 198 244 292 303 311 198 165 143 221 330 225 71 81 243 258 207 236 269 256 278 281 251 159
3 1 358 355 352 348 346 344 342 340 337 334 332 330 326 322 320 319 236 42 67 144 303 238 238 257 272 66 308 294 119 156 148 221 349 25 247 231 241 256 228 200 241 266 288 37 137
1 358 356 354 351 347 345 343 341 338 335 332 330 330 328 323 319 103 281 231 359 314 187 289 210 217 189 149 207 256 146 171 169 202 202 180 242 321 321 323 329 200 184 261 228 341 2
358 355 353 352 349 346 344 341 339 336 333 330 329 330 332 326 16 321 266 265 302 210 46 272 230 261 148 147 273 218 176 141 223 222 201 233 313 106 328 303 320 325 236 237 194 60 281
357 353 350 349 348 345 343 340 337 334 330 327 327 328 331 335 288 258 293 317 307 61 348 166 210 15 164 153 231 246 170 80 193 216 114 249 303 336 316 250 20 259 315 283 126 112 99
353 352 349 347 346 345 342 339 336 333 328 325 323 326 328 152 275 249 317 317 52 46 255 308 159 165 127 166 253 63 135 66 158 205 293 251 269 193 228 261 193 260 212 45 45 83 15
353 350 347 345 344 343 341 339 336 332 328 325 322 316 295 265 230 321 310 41 48 156 305 309 211 151 164 170 202 165 135 148 175 112 292 309 279 241 196 302 14 76 54 339 348 9 224
352 349 345 344 343 342 340 340 337 334 331 327 322 312 215 212 274 348 58 56 191 244 262 347 323 84 159 151 256 209 172 226 247 133 110 199 318 204 163 173 216 348 153 157 216 210 250
349 349 345 344 342 341 341 340 338 337 335 330 320 316 203 256 196 10 77 100 211 208 296 330 355 97 242 188 168 142 221 236 212 165 181 160 265 282 217 175 127 303 249 206 135 58 76
346 346 344 343 342 341 341 341 340 340 337 333 320 340 266 121 151 83 81 228 239 238 337 2 77 33 146 200 154 158 188 234 231 185 156 220 304 224 278 111 252 155 178 307 1 171 254
345 342 340 342 342 342 342 342 344 343 341 331 6 10 279 147 114 52 165 230 266 256 350 13 353 297 232 190 201 181 196 272 148 202 169 153 156 259 34 179 237 328 276 71 129 123 182
347 342 339 339 341 347 346 348 347 346 346 31 345 18 335 34 61 44 172 201 256 281 26 292 211 215 218 196 200 181 191 174 324 181 139 201 155 237 242 254 274 204 151 130 113 277 168
339 340 342 337 342 347 347 347 346 344 350 321 25 271 323 59 131 286 284 283 242 264 245 224 255 214 275 193 150 177 276 122 332 24 321 185 4 42 347 356 3 129 149 124 105 78 197
345 349 337 340 345 347 348 349 347 345 346 149 64 24 330 55 104 122 12 291 274 268 256 198 239 206 168 197 305 174 176 9 360 42 46 79 119 151 182 215 178 269 305 179 129 116 191
344 347 348 344 346 347 349 351 350 348 345 46 28 322 187 271 307 13 124 306 291 295 261 262 294 224 186 197 159 181 211 336 38 340 48 90 115 197 254 252 191 238 243 207 164 172 149
344 346 348 350 348 348 351 354 353 352 347 38 43 31 349 290 318 352 74 261 277 290 234 264 217 265 194 183 185 187 142 169 192 0 83 355 198 120 301 262 232 214 172 114 65 62 120
344 346 344 349 351 350 352 354 360 358 2 31 328 328 107 304 357 49 225 308 282 322 263 236 262 119 103 183 175 174 181 174 164 151 187 98 125 75 271 351 349 334 349 109 97 21 139
341 343 343 344 348 351 352 354 359 3 29 310 266 21 51 276 298 217 303 311 277 285 250 323 24 80 314 92 87 56 47 354 197 199 163 159 132 131 218 30 231 280 70 110 99 60 48
341 340 340 343 345 347 350 352 356 355 359 327 277 113 101 283 238 289 292 260 296 301 332 297 324 301 320 49 61 27 344 7 321 297 280 174 129 180 163 179 241 156 201 199 123 35 353
340 339 339 339 343 346 346 348 352 353 355 19 261 197 125 104 254 341 302 291 302 322 333 304 315 311 64 81 80 136 202 222 293 326 83 78 127 145 143 158 194 229 86 352 140 102 162
334 342 336 335 338 341 343 344 347 349 351 336 271 208 115 219 266 202 224 270 303 350 256 306 330 346 37 80 94 155 232 212 231 219 307 333 8 183 148 118 297 327 309 322 159 200 170
332 331 333 335 334 338 337 337 339 345 353 359 277 223 121 250 274 222 237 240 341 106 148 292 13 334 21 62 122 207 172 236 3 254 211 186 133 48 87 91 125 359 17 108 201 186 171
330 330 331 330 334 336 333 332 335 338 343 6 294 334 5 193 252 249 230 233 209 222 122 309 206 246 216 83 247 118 248 36 125 272 343 4 176 146 117 176 228 316 106 143 133 134 182